Flag for Micronesia Weather past 2 weeks in Palikir, Ponape, Micronesia

Now
84 °F

More clouds than sun.


Feels Like: 93 °F
Forecast: 83 / 85 °F
Wind: 6 mph from East

Location: Pohnpei

Current Time: Feb 28, 2015 at 9:43:57 AM

Latest Report: Feb 28, 2015 at 8:54 AM


Visibility: 15 mi

Pressure: 29.83 "Hg

Humidity: 77%

Dew point: 76 °F

Location of PalikirLocation

Historic Weather in Palikir — Graph

°F

Palikir temperature yesterday

Maximum temperature yesterday: 86 °F (at 11:52 AM)
Minimum temperature yesterday: 77 °F (at 3:52 AM)
Average temperature yesterday: 81 °F

Past Weeks' High & Low Weather Summary

 TemperatureHumidityPressure
High89 °F (Feb 20, 1:55 PM)98% (Feb 20, 6:56 AM)29.90 "Hg (Feb 20, 6:56 AM)
Low74 °F (Feb 17, 10:50 AM)65% (Feb 16, 1:53 PM)29.72 "Hg (Feb 16, 2:55 PM)
Average81 °F83%29.81 "Hg
* Reported Feb 13 9:52 AM — Feb 28 7:50 AM, Palikir, Weather by CustomWeather, © 2015

Note: Actual official high and low records may vary slightly from our data, if they occured in-between our weather recording intervals... More about our weather records

Advertising

Palikir weather history for previous 24 hours

 ConditionsComfort  
Time TempWeatherWind HumidityBarometerVisibility
7:50 AM
Sat, Feb 28
82 °FPartly sunny.3 mph79%29.81 "Hg15 mi
2:50 AM81 °FMostly cloudy.6 mph83%29.78 "Hg15 mi
1:55 AM82 °FMostly cloudy.3 mph79%29.79 "Hg15 mi
12:50 AM82 °FMostly cloudy.3 mph79%29.81 "Hg15 mi
11:52 PM
Fri, Feb 27
82 °FMostly cloudy.8 mph81%29.83 "Hg15 mi
10:55 PM83 °FMostly cloudy.14 mph77%29.85 "Hg15 mi
9:55 PM82 °FMostly cloudy.7 mph83%29.83 "Hg15 mi
8:52 PM82 °FMostly cloudy.9 mph84%29.82 "Hg15 mi
7:55 PM82 °FMostly cloudy.10 mph82%29.80 "Hg15 mi
6:54 PM82 °FMostly cloudy.14 mph83%29.78 "Hg15 mi
5:50 PM82 °FMore clouds than sun.12 mph79%29.77 "Hg15 mi
4:54 PM82 °FMore clouds than sun.10 mph79%29.75 "Hg15 mi
3:52 PM82 °FCloudy.12 mph83%29.75 "Hg15 mi
2:54 PM84 °FCloudy.10 mph78%29.74 "Hg15 mi
1:53 PM83 °FCloudy.14 mph79%29.77 "Hg15 mi
12:52 PM85 °FCloudy.8 mph74%29.80 "Hg15 mi
11:52 AM86 °FMore clouds than sun.12 mph72%29.82 "Hg15 mi
10:52 AM84 °FBroken clouds.7 mph77%29.83 "Hg15 mi
9:53 AM83 °FPartly sunny.13 mph77%29.85 "Hg15 mi
Weather by CustomWeather, © 2015

See weather overviewHow to use our weather pages